Date,TemperatureHighF,TemperatureAvgF,TemperatureLowF,DewpointHighF,DewpointAvgF,DewpointLowF,HumidityHigh,HumidityAvg,HumidityLow,PressureMaxIn,PressureMinIn,WindSpeedMaxMPH,WindSpeedAvgMPH,GustSpeedMaxMPH,PrecipitationSumIn
2013-3-1,24,20,16,14,11,7,76,69,61,30.22,30.09,13,7,189,0.00
2013-3-2,23,17,12,15,10,5,81,72,65,30.19,30.10,13,4,16,0.00
2013-3-3,24,13,-2,15,8,-7,86,77,65,30.10,30.05,10,3,14,0.00
2013-3-4,26,15,1,15,8,-4,88,72,48,30.16,30.09,7,2,10,0.00
2013-3-5,31,24,3,21,17,-1,84,73,62,30.16,30.00,14,4,17,0.00
2013-3-6,37,31,25,29,26,19,95,82,70,30.27,30.07,10,5,17,0.00
2013-3-7,28,26,24,24,18,16,88,74,62,30.44,30.26,11,4,19,0.00
2013-3-8,39,23,14,25,18,11,89,81,51,30.50,30.39,7,1,9,0.00
2013-3-9,43,32,16,33,23,13,94,74,50,30.34,29.96,8,2,197,0.92
2013-3-10,40,37,35,40,36,33,100,97,92,29.96,29.81,8,2,29,1.91
2013-3-11,46,38,32,45,37,32,100,98,94,29.80,29.44,8,2,10,1.65
2013-3-12,32,27,24,32,26,22,99,94,87,29.83,29.50,8,2,12,0.23
2013-3-13,26,22,18,19,16,14,92,79,60,30.20,29.84,14,6,22,0.01
2013-3-14,34,27,16,21,18,13,87,69,55,30.23,29.98,10,3,26,0.26
2013-3-15,32,28,22,31,21,12,95,73,59,29.98,29.87,14,7,130,0.11
2013-3-16,22,19,17,15,12,9,87,73,58,30.00,29.89,9,4,12,0.01
2013-3-17,22,17,13,10,7,4,72,65,56,30.24,30.00,5,1,8,0.01
2013-3-18,34,22,8,28,16,3,94,78,54,30.21,29.49,8,2,14,0.00
2013-3-19,30,25,21,29,22,16,95,87,71,29.82,29.45,14,4,17,0.00
2013-3-20,25,23,20,20,14,9,91,71,58,29.88,29.81,10,4,17,0.05
2013-3-21,26,25,23,23,20,16,91,79,66,29.94,29.80,13,6,21,0.01
2013-3-22,32,27,23,24,22,17,89,79,70,30.05,29.92,10,4,14,0.03
2013-3-23,35,30,26,27,24,21,86,77,61,30.12,30.05,8,2,12,0.09
2013-3-24,32,28,24,27,23,17,89,80,69,30.10,29.85,10,3,10,0.09
2013-3-25,37,31,24,28,24,17,82,75,64,30.00,29.83,15,6,17,0.01
2013-3-26,39,34,31,31,28,24,91,77,54,30.15,30.00,18,5,21,0.00
2013-3-27,40,34,26,30,28,25,96,79,63,30.22,30.12,10,3,16,1.28
2013-3-28,43,35,25,30,26,22,89,72,48,30.28,30.22,7,1,10,1.28
2013-3-29,44,33,19,28,22,17,94,67,39,30.30,30.22,7,1,10,0.00
2013-3-30,49,37,20,37,22,15,89,58,31,30.22,29.83,8,2,13,0.05
2013-3-31,41,37,28,40,33,-100,97,89,67,29.81,29.59,17,4,22,0.29